Regional Weather Roundup
Issued by NWS Binghamton, NY

Home | Current Version | Previous Version | Text Only | Print | Product List | Glossary On
Versions: 1 2 3 4 5 6 7 8 9 10 11 12 13 14 15 16 17 18 19 20 21 22 23 24 25 26 27 28 29 30 31 32 33 34 35 36 37 38 39 40 41 42 43 44 45 46 47 48 49 50
000
ASUS41 KBGM 100710
RWRBGM

REGIONAL WEATHER ROUNDUP
NATIONAL WEATHER SERVICE BINGHAMTON NY
200 AM EST WED FEB 10 2016

Note: "fair" indicates few or no clouds below 12,000 feet with no
significant weather and/or obstructions to visibility.

* = Station(s) that does not report precipitation, such as rain,
snow, etc, also no thunder or fog.

!NYZ009-015>018-022>025-036-037-044>046-055>057-062-100800
...CENTRAL NEW YORK...

CITY           SKY/WX    TMP DP  RH WIND       PRES   REMARKS
BINGHAMTON     FOG       27  26  96 SW5       29.48S VSB 1/2 WCI  22
CORTLAND       CLOUDY    28  28 100 CALM      29.50S FOG
DANSVILLE      MOCLDY    31  18  58 S3        29.53S
ELMIRA         MOCLDY    29  26  89 W6        29.52S WCI  23
ITHACA         CLOUDY    28  27  96 S7        29.51F WCI  21
HORNELL        MOCLDY    28  18  64 W3        29.55S
MONTICELLO     CLOUDY    27  27 100 CALM      29.51F
NORWICH        LGT SNOW  28  28 100 CALM      29.51S
ONEONTA        CLEAR     28  28 100 CALM      29.47S
PENN YAN       MOCLDY    32  22  66 SW8       29.50S WCI  25
ROME           CLOUDY    27  25  92 CALM      29.54S
SIDNEY         LGT SNOW  32  32 100 CALM      29.51S
SYRACUSE       LGT SNOW  26  26 100 E5        29.52S FOG     WCI  20
$$

!PAZ038>040-043-044-047-048-072-100800
...NORTHEAST PENNSYLVANIA...

CITY           SKY/WX    TMP DP  RH WIND       PRES   REMARKS
HAZLETON       LGT SNOW  28  28 100 W5        29.54S WCI  23
SCRANTON       LGT SNOW  30  28  92 SW7       29.54S FOG     WCI  23
$$
&&
KEY
WCI = WIND CHILL INDEX
VSB = VISIBILITY
HX  = HEAT INDEX
$$



USA.gov is the U.S. government's official web portal to all federal, state and local government web resources and services.